Location: Newark
(38.0892°N, 27.7378°E)
Time: 05:11:53
(UTC+00:00)

N. Korean satellite - Pass Details

Date: 10 December 2019
Orbit: 454 x 508 km, 97.2° (Epoch: 20 January)

Event Time Altitude Azimuth Distance (km) Brightness Sun altitude
Rises 03:28:00 0° 22° (NNE) 2,536 10.3 -20.2°
Reaches altitude 10° 03:30:15 10° 33° (NNE) 1,643 9.5 -19.8°
Maximum altitude 03:33:26 31° 97° (E) 842 8.4 -19.2°
Drops below altitude 10° 03:36:32 10° 161° (SSE) 1,606 9.6 -18.6°
Sets 03:38:42 0° 172° (S) 2,469 10.5 -18.2°
